| time (UTC) | temp C | wind direction | speed KPH | gust KPH | rain 1hr cm | rain 24hr cm | rain mn cm | humidity % | barometer mb |
| 20260507110028 | 11 | 327 | 0.0 | 1.6 | 0.00 | 0.00 | 0.00 | 79 | 1021.3 |
| 20260507104516 | 11 | 281 | 0.0 | 4.8 | 0.00 | 0.00 | 0.00 | 79 | 1021.4 |
| 20260507103015 | 11 | 230 | 0.0 | 1.6 | 0.00 | 0.00 | 0.00 | 80 | 1021.5 |
| 20260507101515 | 11 | 206 | 0.0 | 4.8 | 0.00 | 0.00 | 0.00 | 80 | 1021.5 |
| 20260507100021 | 11 | 224 | 0.0 | 3.2 | 0.00 | 0.00 | 0.00 | 80 | 1021.6 |
| 20260507094543 | 11 | 224 | 0.0 | 1.6 | 0.00 | 0.00 | 0.00 | 79 | 1021.6 |
| 20260507093043 | 12 | 231 | 0.0 | 1.6 | 0.00 | 0.00 | 0.00 | 79 | 1021.8 |
| 20260507091515 | 12 | 237 | 1.6 | 4.8 | 0.00 | 0.00 | 0.00 | 80 | 1021.8 |
| 20260507090009 | 12 | 271 | 0.0 | 3.2 | 0.00 | 0.00 | 0.00 | 80 | 1021.8 |
| 20260507084540 | 12 | 221 | 0.0 | 1.6 | 0.00 | 0.00 | 0.00 | 80 | 1021.7 |
| 20260507083038 | 12 | 233 | 0.0 | 3.2 | 0.00 | 0.00 | 0.00 | 80 | 1021.7 |
| 20260507081535 | 12 | 245 | 0.0 | 4.8 | 0.00 | 0.00 | 0.00 | 80 | 1021.8 |
| 20260507080037 | 12 | 278 | 0.0 | 3.2 | 0.00 | 0.00 | 0.00 | 82 | 1021.8 |
| 20260507074537 | 12 | 226 | 0.0 | 1.6 | 0.00 | 0.00 | 0.00 | 82 | 1021.8 |
| 20260507073039 | 12 | 233 | 0.0 | 6.4 | 0.00 | 0.00 | 0.00 | 81 | 1021.8 |
| 20260507071531 | 12 | 164 | 0.0 | 1.6 | 0.00 | 0.00 | 0.00 | 82 | 1021.7 |
| 20260507070031 | 12 | 247 | 0.0 | 1.6 | 0.00 | 0.00 | 0.00 | 82 | 1021.5 |
| 20260507064529 | 12 | 127 | 0.0 | 8.0 | 0.00 | 0.00 | 0.00 | 81 | 1021.8 |
| 20260507063039 | 12 | 254 | 1.6 | 8.0 | 0.00 | 0.00 | 0.00 | 81 | 1021.7 |
| 20260507061556 | 12 | 236 | 0.0 | 3.2 | 0.00 | 0.00 | 0.00 | 81 | 1021.8 |
| 20260507060056 | 12 | 264 | 1.6 | 6.4 | 0.00 | 0.00 | 0.00 | 81 | 1021.8 |
| 20260507054523 | 12 | 236 | 0.0 | 4.8 | 0.00 | 0.00 | 0.00 | 81 | 1021.8 |
| 20260507053022 | 12 | 257 | 1.6 | 6.4 | 0.00 | 0.00 | 0.00 | 80 | 1021.8 |
| 20260507051519 | 13 | 229 | 1.6 | 9.7 | 0.00 | 0.00 | 0.00 | 79 | 1021.8 |
| 20260507050017 | 13 | 66 | 1.6 | 6.4 | 0.00 | 0.00 | 0.00 | 79 | 1021.8 |
| 20260507044519 | 13 | 98 | 0.0 | 3.2 | 0.00 | 0.00 | 0.00 | 78 | 1021.8 |
| 20260507043015 | 13 | 262 | 0.0 | 8.0 | 0.00 | 0.00 | 0.00 | 78 | 1021.7 |
| 20260507041511 | 13 | 90 | 0.0 | 9.7 | 0.00 | 0.00 | 0.00 | 78 | 1021.4 |
| 20260507040011 | 14 | 243 | 1.6 | 6.4 | 0.00 | 0.00 | 0.00 | 77 | 1021.3 |
| 20260507034526 | 15 | 56 | 0.0 | 4.8 | 0.00 | 0.00 | 0.00 | 77 | 1020.9 |
| 20260507033011 | 15 | 238 | 0.0 | 8.0 | 0.00 | 0.00 | 0.00 | 78 | 1020.8 |
| 20260507031506 | 15 | 282 | 0.0 | 8.0 | 0.00 | 0.00 | 0.00 | 78 | 1020.6 |
| 20260507030010 | 15 | 321 | 0.0 | 3.2 | 0.00 | 0.00 | 0.00 | 77 | 1020.4 |
| 20260507024505 | 16 | 306 | 1.6 | 6.4 | 0.00 | 0.00 | 0.00 | 76 | 1020.2 |
| 20260507023005 | 16 | 78 | 0.0 | 4.8 | 0.00 | 0.00 | 0.00 | 74 | 1020.1 |
| 20260507021504 | 17 | 105 | 0.0 | 4.8 | 0.00 | 0.00 | 0.00 | 72 | 1020.1 |
| 20260507020001 | 17 | 84 | 1.6 | 6.4 | 0.00 | 0.00 | 0.00 | 71 | 1020.2 |
| 20260507014604 | 18 | 274 | 0.0 | 14.5 | 0.00 | 0.00 | 0.00 | 71 | 1020.4 |
| 20260507013118 | 18 | 186 | 0.0 | 3.2 | 0.00 | 0.00 | 0.00 | 70 | 1020.3 |
| 20260507011610 | 18 | 295 | 1.6 | 9.7 | 0.00 | 0.00 | 0.00 | 69 | 1020.2 |
| 20260507010107 | 19 | 219 | 0.0 | 8.0 | 0.00 | 0.00 | 0.00 | 69 | 1020.2 |
| 20260507004556 | 20 | 263 | 0.0 | 8.0 | 0.00 | 0.00 | 0.00 | 70 | 1020.1 |
| 20260507003055 | 20 | 51 | 0.0 | 4.8 | 0.00 | 0.00 | 0.00 | 69 | 1019.9 |
| 20260507001557 | 20 | 248 | 0.0 | 6.4 | 0.00 | 0.00 | 0.00 | 69 | 1020.1 |
| 20260507000052 | 20 | 276 | 0.0 | 6.4 | 0.00 | 0.00 | 0.00 | 66 | 1020.0 |
| 20260506234551 | 20 | 269 | 1.6 | 6.4 | 0.00 | 0.00 | 0.00 | 66 | 1019.9 |
| 20260506233103 | 20 | 91 | 0.0 | 4.8 | 0.00 | 0.00 | 0.00 | 66 | 1019.9 |
| 20260506231548 | 20 | 101 | 0.0 | 3.2 | 0.00 | 0.00 | 0.00 | 66 | 1020.1 |
| 20260506230042 | 20 | 272 | 0.0 | 6.4 | 0.00 | 0.00 | 0.00 | 68 | 1020.2 |
| 20260506224541 | 20 | 184 | 1.6 | 9.7 | 0.00 | 0.00 | 0.00 | 67 | 1020.4 |
| 20260506223039 | 19 | 270 | 1.6 | 6.4 | 0.00 | 0.00 | 0.00 | 68 | 1020.5 |
| 20260506221539 | 19 | 254 | 0.0 | 4.8 | 0.00 | 0.00 | 0.00 | 69 | 1020.6 |
| 20260506220039 | 19 | 261 | 1.6 | 9.7 | 0.00 | 0.00 | 0.00 | 70 | 1020.6 |
| 20260506214535 | 18 | 246 | 0.0 | 8.0 | 0.00 | 0.00 | 0.00 | 72 | 1020.6 |
| 20260506213032 | 18 | 146 | 1.6 | 8.0 | 0.00 | 0.00 | 0.00 | 73 | 1020.8 |
| 20260506211531 | 17 | 51 | 3.2 | 11.3 | 0.00 | 0.00 | 0.00 | 75 | 1020.9 |
| 20260506210036 | 17 | 217 | 0.0 | 6.4 | 0.00 | 0.00 | 0.00 | 75 | 1021.1 |
| 20260506204532 | 18 | 105 | 0.0 | 6.4 | 0.00 | 0.00 | 0.00 | 74 | 1021.0 |
| 20260506203024 | 17 | 129 | 1.6 | 4.8 | 0.00 | 0.00 | 0.00 | 75 | 1020.9 |
| 20260506201527 | 17 | 119 | 1.6 | 4.8 | 0.00 | 0.00 | 0.00 | 75 | 1021.0 |
| 20260506200034 | 16 | 145 | 0.0 | 4.8 | 0.00 | 0.00 | 0.00 | 77 | 1021.1 |
| 20260506194520 | 16 | 224 | 4.8 | 9.7 | 0.00 | 0.00 | 0.00 | 77 | 1021.3 |
| 20260506193016 | 17 | 212 | 1.6 | 8.0 | 0.00 | 0.00 | 0.00 | 77 | 1021.4 |
| 20260506191514 | 16 | 231 | 3.2 | 6.4 | 0.00 | 0.00 | 0.00 | 77 | 1021.2 |
| 20260506190013 | 16 | 265 | 3.2 | 8.0 | 0.00 | 0.00 | 0.00 | 79 | 1021.3 |
| 20260506184511 | 16 | 218 | 0.0 | 4.8 | 0.00 | 0.00 | 0.00 | 79 | 1021.2 |
| 20260506183006 | 16 | 131 | 0.0 | 8.0 | 0.00 | 0.00 | 0.00 | 80 | 1021.2 |
| 20260506181504 | 15 | 224 | 1.6 | 6.4 | 0.00 | 0.00 | 0.00 | 81 | 1021.3 |
| 20260506180013 | 15 | 281 | 1.6 | 9.7 | 0.00 | 0.00 | 0.00 | 82 | 1021.3 |
| 20260506174502 | 15 | 276 | 0.0 | 3.2 | 0.00 | 0.00 | 0.00 | 81 | 1021.3 |
| 20260506173111 | 15 | 116 | 0.0 | 3.2 | 0.00 | 0.00 | 0.00 | 81 | 1021.0 |
| 20260506171605 | 15 | 272 | 0.0 | 3.2 | 0.00 | 0.00 | 0.00 | 82 | 1021.0 |
| 20260506164612 | 15 | 240 | 0.0 | 4.8 | 0.00 | 0.00 | 0.00 | 82 | 1021.0 |
| 20260506163057 | 15 | 11 | 0.0 | 3.2 | 0.00 | 0.00 | 0.00 | 82 | 1020.9 |
| 20260506161551 | 14 | 298 | 0.0 | 3.2 | 0.00 | 0.00 | 0.00 | 83 | 1020.8 |
| 20260506160055 | 14 | 227 | 0.0 | 3.2 | 0.00 | 0.00 | 0.00 | 83 | 1020.6 |
| 20260506154550 | 13 | 87 | 0.0 | 4.8 | 0.00 | 0.00 | 0.00 | 85 | 1020.1 |
| 20260506153039 | 13 | 63 | 0.0 | 3.2 | 0.00 | 0.00 | 0.00 | 85 | 1021.1 |
| 20260506151540 | 13 | 238 | 0.0 | 4.8 | 0.00 | 0.00 | 0.00 | 85 | 1021.1 |
| 20260506150038 | 13 | 279 | 0.0 | 4.8 | 0.00 | 0.00 | 0.00 | 86 | 1021.2 |
| 20260506144536 | 13 | 273 | 0.0 | 3.2 | 0.00 | 0.00 | 0.00 | 86 | 1020.9 |
| 20260506143035 | 13 | 257 | 0.0 | 1.6 | 0.00 | 0.00 | 0.00 | 86 | 1020.5 |
| 20260506141530 | 13 | 262 | 0.0 | 1.6 | 0.00 | 0.00 | 0.00 | 86 | 1020.0 |
| 20260506140031 | 13 | 262 | 0.0 | 1.6 | 0.00 | 0.00 | 0.00 | 87 | 1020.4 |
| 20260506134526 | 13 | 248 | 0.0 | 0.0 | 0.00 | 0.00 | 0.00 | 87 | 1020.2 |
| 20260506133022 | 13 | 248 | 0.0 | 0.0 | 0.00 | 0.00 | 0.00 | 87 | 1020.0 |
| 20260506131521 | 12 | 248 | 0.0 | 0.0 | 0.00 | 0.00 | 0.00 | 87 | 1019.7 |
| 20260506130021 | 13 | 248 | 0.0 | 0.0 | 0.00 | 0.00 | 0.00 | 87 | 1019.8 |
| 20260506124519 | 13 | 248 | 0.0 | 1.6 | 0.00 | 0.00 | 0.00 | 87 | 1019.7 |
| 20260506123021 | 13 | 248 | 0.0 | 1.6 | 0.00 | 0.00 | 0.00 | 87 | 1019.7 |
| 20260506121516 | 13 | 248 | 0.0 | 1.6 | 0.00 | 0.00 | 0.00 | 87 | 1019.7 |
| 20260506120014 | 13 | 248 | 0.0 | 3.2 | 0.00 | 0.00 | 0.00 | 86 | 1019.7 |
| 20260506114512 | 13 | 221 | 0.0 | 1.6 | 0.00 | 0.00 | 0.00 | 86 | 1019.5 |
| 20260506113011 | 13 | 278 | 0.0 | 8.0 | 0.00 | 0.00 | 0.00 | 86 | 1019.4 |
| 20260506111541 | 13 | 247 | 0.0 | 3.2 | 0.00 | 0.00 | 0.00 | 86 | 1019.3 |